Location: Richmond
(37.5536°N, 77.4606°W)
Time: 13:20:24

ISS - Visible Passes

Search period start: 25 October 2016 00:00
Search period end: 04 November 2016 00:00
Orbit: 399 x 408 km, 51.6° (Epoch: 26 October)

Date Brightness Start Highest point End Pass type
(mag) Time Alt. Az. Time Alt. Az. Time Alt. Az.
31 Oct -0.4 06:25:03 10° S 06:27:18 17° SE 06:29:33 10° E visible
02 Nov -2.3 06:15:53 13° SSW 06:18:34 45° SE 06:21:43 10° ENE visible
03 Nov -0.9 05:26:35 21° ESE 05:26:35 21° ESE 05:28:48 10° ENE visible
03 Nov -2.5 06:59:31 10° W 07:02:32 33° NNW 07:05:33 10° NE visible
